Regional Weather Roundup
Issued by NWS

Home | Current Version | Previous Version | Text Only | Print | Product List | Glossary Off
Versions: 1 2 3 4 5 6 7 8 9 10 11 12 13 14 15 16 17 18 19 20 21 22 23 24 25 26 27 28 29 30 31 32 33 34 35 36 37 38 39 40 41 42 43 44 45 46 47 48 49 50

000
ASUS43 KIND 251200
RWRIN

WEATHER ROUNDUP FOR INDIANA
NATIONAL WEATHER SERVICE INDIANAPOLIS IN
800 AM EDT SUN JUN 25 2017

NOTE: "FAIR" INDICATES FEW OR NO CLOUDS BELOW 12,000 FEET WITH NO
SIGNIFICANT WEATHER AND/OR OBSTRUCTIONS TO VISIBILITY.

* - STATION DOES NOT REPORT WEATHER SUCH AS PRECIPITATION OR FOG.

+ - STATION NOT QUALITY CONTROLLED BY THE NATIONAL WEATHER SERVICE.
    USE DATA WITH CAUTION...ESPECIALLY DEWPOINT AND RELATIVE
    HUMIDITY OBSERVATIONS.

INZ001>003-010>013-019-020-251300-
NORTHWEST INDIANA

CITY           SKY/WX    TMP DP  RH WIND       PRES   REMARKS
GARY /AIRPORT/ SUNNY     61  46  59 W10       30.10S
KNOX *+        SUNNY     55  37  50 W9        30.09S
MICHIGAN CITY+ SUNNY     59  46  63 W9        30.09S
MONTICELLO +   SUNNY     57  49  74 W7        30.12R
6HR MIN TEMP:  55; 6HR MAX TEMP:  57;


$$

LMZ046-743>745-251300-
SOUTHERN LAKE MICHIGAN

STATION/POSITION TIME  TEMP    WIND        PRES    WAVE
                       AIR SEA DIR/SP/G            HT
                 (UTC) (F)     (DEG/KT/KT) (MB)    (FT)
BURNS HARBOR     1140   61     270/ 13/ 18 1019.3R
MICHIGAN CITY    1130   61     270/ 18/ 19   N/A
5NW MICH CITY    1150   61 67  280/ 16/ 19   N/A     4

$$

INZ004-005-014>016-021>024-251300-
NORTH CENTRAL INDIANA

CITY           SKY/WX    TMP DP  RH WIND       PRES   REMARKS
GOSHEN         SUNNY     58  47  66 W10       30.07R
6HR MIN TEMP:  54; 6HR MAX TEMP:  58;

SOUTH BEND     SUNNY     58  48  69 W12       30.07R
6HR MIN TEMP:  53; 6HR MAX TEMP:  58;


$$

INZ006>009-017-018-025>027-251300-
NORTHEAST INDIANA

CITY           SKY/WX    TMP DP  RH WIND       PRES   REMARKS
FORT WAYNE     MOSUNNY   61  48  62 W14       30.08R
6HR MIN TEMP:  54; 6HR MAX TEMP:  61;

KENDALLVILLE + SUNNY     58  49  70 W10       30.06R

$$

INZ028-029-035-036-043>045-051>053-251300-
WEST CENTRAL INDIANA

CITY           SKY/WX    TMP DP  RH WIND       PRES   REMARKS
CRAWFORDSVL +  SUNNY     56  50  78 W7        30.15R
6HR MIN TEMP:  52; 6HR MAX TEMP:  56;

GREENCASTLE +  SUNNY     59  46  63 W5        30.16S
LAFAYETTE      SUNNY     56  51  84 W6        30.13R
6HR MIN TEMP:  52; 6HR MAX TEMP:  56;

TERRE HAUTE    MOSUNNY   60  50  69 W5        30.16R
6HR MIN TEMP:  55; 6HR MAX TEMP:  60;


$$

INZ030>032-037>040-046>048-054>057-064-065-251300-
CENTRAL INDIANA

CITY           SKY/WX    TMP DP  RH WIND       PRES   REMARKS
COLUMBUS       MOSUNNY   57  50  77 SW6       30.15S
GREENWOOD *+   MOSUNNY   61  47  59 W7        30.14S
6HR MIN TEMP:  55; 6HR MAX TEMP:  61;

INDIANAPOLIS   MOSUNNY   60  49  66 W12       30.14R
6HR MIN TEMP:  54; 6HR MAX TEMP:  60;

-EAGLE CREEK   SUNNY     62  47  57 VRB7      30.13R
6HR MIN TEMP:  56; 6HR MAX TEMP:  62;

KOKOMO +       SUNNY     59  49  69 W13       30.12R
6HR MIN TEMP:  56; 6HR MAX TEMP:  59;

MT COMFORT *+  MOSUNNY   61  48  63 SW10      30.12S
SHELBYVILLE    SUNNY     61  50  67 SW8       30.13R
6HR MIN TEMP:  55; 6HR MAX TEMP:  61;


$$

INZ033-034-041-042-049-050-058-059-251300-
EAST CENTRAL INDIANA

CITY           SKY/WX    TMP DP  RH WIND       PRES   REMARKS
MUNCIE         SUNNY     64  46  52 W15G21    30.10R
6HR MIN TEMP:  57; 6HR MAX TEMP:  64;

RICHMOND +     SUNNY     55  50  82 SW9       30.14R

$$

INZ060-061-067>069-081>083-085>088-251300-
SOUTHWEST INDIANA

CITY           SKY/WX    TMP DP  RH WIND       PRES   REMARKS
EVANSVILLE     MOSUNNY   61  54  77 SW3       30.19R
6HR MIN TEMP:  54; 6HR MAX TEMP:  62;

HUNTINGBURG *+ MOSUNNY   59  55  87 S3        30.19R
6HR MIN TEMP:  54; 6HR MAX TEMP:  62;


$$

INZ062-063-066-070>080-084-089>092-251300-
SOUTH CENTRAL AND SOUTHEAST INDIANA

CITY           SKY/WX    TMP DP  RH WIND       PRES   REMARKS
BLOOMINGTON    SUNNY     60  49  66 SW8       30.16R
6HR MIN TEMP:  53; 6HR MAX TEMP:  60;

MADISON *+     MOSUNNY   61  54  77 CALM      30.19S
SEYMOUR +      SUNNY     61  55  82 CALM      30.16R

$$





USA.gov is the U.S. government's official web portal to all federal, state and local government web resources and services.